When you browse on this site, cookies collect data to enhance your experience and personalize the content and advertising you see.
Visit our Privacy Policy to learn more. By continuing to use the site, you agree to this use of cookies and data.
  • In Netherlands
  • List of Countries
  • For 7 days
  • Water Temperature
  • Weather Map
  • Weather Widgets
  • user-avatar
    Login

    Hourly Weather Baraki Barak

    Today, 29 May, Friday

    Time Temperature Precipitation Wind Pressure Humidity
    00:00 +19°C° 0.2 mm 2 mps 598 mmHg 50%
    01:00 +19°C° 0.2 mm 1 mps 598 mmHg 52%
    02:00 +17°C° 0.2 mm 0 mps 597 mmHg 54%
    03:00 +17°C° 0 mm 0 mps 597 mmHg 56%
    04:00 +16°C° 0 mm 0 mps 597 mmHg 57%
    05:00 +16°C° 0 mm 0 mps 596 mmHg 58%
    06:00 +17°C° 0 mm 0 mps 597 mmHg 54%
    07:00 +20°C° 0 mm 1 mps 598 mmHg 50%
    08:00 +20°C° 0 mm 1 mps 598 mmHg 46%
    09:00 +22°C° 0 mm 1 mps 599 mmHg 42%
    10:00 +23°C° 0 mm 1 mps 599 mmHg 38%
    11:00 +24°C° 0 mm 2 mps 599 mmHg 33%
    12:00 +25°C° 0 mm 1 mps 599 mmHg 31%
    13:00 +26°C° 0 mm 1 mps 599 mmHg 28%
    14:00 +26°C° 0 mm 1 mps 599 mmHg 25%
    15:00 +26°C° 0 mm 2 mps 599 mmHg 27%
    16:00 +26°C° 0 mm 3 mps 599 mmHg 29%
    17:00 +25°C° 0 mm 3 mps 599 mmHg 30%
    18:00 +23°C° 0.2 mm 4 mps 599 mmHg 37%
    19:00 +21°C° 0.2 mm 5 mps 599 mmHg 44%
    20:00 +20°C° 0.2 mm 5 mps 599 mmHg 50%
    21:00 +19°C° 1.2 mm 4 mps 598 mmHg 54%
    22:00 +18°C° 1.2 mm 4 mps 598 mmHg 57%
    23:00 +17°C° 1.2 mm 3 mps 597 mmHg 60%

    Tomorrow, 30 May, Saturday

    Time Temperature Precipitation Wind Pressure Humidity
    00:00 +17°C° 0 mm 2 mps 597 mmHg 60%
    01:00 +17°C° 0 mm 2 mps 597 mmHg 59%
    02:00 +18°C° 0 mm 1 mps 597 mmHg 59%
    03:00 +18°C° 0 mm 1 mps 597 mmHg 59%
    04:00 +18°C° 0 mm 1 mps 596 mmHg 60%
    05:00 +15°C° 0 mm 0 mps 596 mmHg 61%
    06:00 +16°C° 0 mm 0 mps 597 mmHg 56%
    07:00 +17°C° 0 mm 0 mps 598 mmHg 51%
    08:00 +20°C° 0 mm 1 mps 598 mmHg 46%
    09:00 +21°C° 0 mm 1 mps 599 mmHg 41%
    10:00 +22°C° 0 mm 1 mps 599 mmHg 35%
    11:00 +24°C° 0 mm 2 mps 600 mmHg 29%
    12:00 +25°C° 0 mm 2 mps 600 mmHg 26%
    13:00 +25°C° 0 mm 2 mps 600 mmHg 23%
    14:00 +26°C° 0 mm 1 mps 600 mmHg 20%
    15:00 +26°C° 0 mm 2 mps 600 mmHg 19%
    16:00 +27°C° 0 mm 2 mps 599 mmHg 18%
    17:00 +27°C° 0 mm 2 mps 599 mmHg 17%
    18:00 +26°C° 0 mm 2 mps 599 mmHg 20%
    19:00 +25°C° 0 mm 2 mps 600 mmHg 23%
    20:00 +25°C° 0 mm 3 mps 600 mmHg 26%
    21:00 +24°C° 0.1 mm 2 mps 600 mmHg 33%
    22:00 +23°C° 0.1 mm 2 mps 600 mmHg 40%
    23:00 +21°C° 0.1 mm 1 mps 600 mmHg 48%

    Day after tomorrow, 31 May, Sunday

    Time Temperature Precipitation Wind Pressure Humidity
    00:00 +21°C° 0 mm 1 mps 599 mmHg 50%
    01:00 +20°C° 0 mm 1 mps 599 mmHg 53%
    02:00 +20°C° 0 mm 1 mps 598 mmHg 56%
    03:00 +19°C° 0 mm 1 mps 598 mmHg 57%
    04:00 +17°C° 0 mm 0 mps 598 mmHg 58%
    05:00 +16°C° 0 mm 0 mps 598 mmHg 59%
    06:00 +19°C° 0 mm 1 mps 599 mmHg 53%
    07:00 +20°C° 0 mm 1 mps 599 mmHg 48%
    08:00 +20°C° 0 mm 2 mps 600 mmHg 42%
    09:00 +21°C° 0 mm 2 mps 600 mmHg 38%
    10:00 +23°C° 0 mm 2 mps 600 mmHg 33%
    11:00 +24°C° 0 mm 2 mps 601 mmHg 29%
    12:00 +25°C° 0 mm 2 mps 601 mmHg 25%
    13:00 +26°C° 0 mm 2 mps 601 mmHg 22%
    14:00 +27°C° 0 mm 2 mps 601 mmHg 18%
    15:00 +27°C° 0 mm 2 mps 600 mmHg 17%
    16:00 +28°C° 0 mm 3 mps 600 mmHg 16%
    17:00 +28°C° 0 mm 3 mps 600 mmHg 15%
    18:00 +27°C° 0 mm 3 mps 600 mmHg 18%
    19:00 +26°C° 0 mm 3 mps 600 mmHg 20%
    20:00 +25°C° 0 mm 3 mps 600 mmHg 22%
    21:00 +24°C° 0 mm 3 mps 600 mmHg 26%
    22:00 +23°C° 0 mm 2 mps 600 mmHg 29%
    23:00 +21°C° 0 mm 2 mps 600 mmHg 33%

    1 June, Monday

    Time Temperature Precipitation Wind Pressure Humidity
    00:00 +21°C° 0 mm 1 mps 599 mmHg 35%
    01:00 +21°C° 0 mm 1 mps 599 mmHg 36%
    02:00 +20°C° 0 mm 1 mps 599 mmHg 38%
    03:00 +20°C° 0 mm 1 mps 599 mmHg 38%
    04:00 +19°C° 0 mm 1 mps 598 mmHg 39%
    05:00 +16°C° 0 mm 0 mps 598 mmHg 40%
    06:00 +17°C° 0 mm 0 mps 599 mmHg 35%
    07:00 +18°C° 0 mm 0 mps 599 mmHg 31%
    08:00 +22°C° 0 mm 1 mps 600 mmHg 26%
    09:00 +23°C° 0 mm 1 mps 600 mmHg 23%
    10:00 +24°C° 0 mm 1 mps 601 mmHg 21%
    11:00 +25°C° 0 mm 1 mps 601 mmHg 18%
    12:00 +26°C° 0 mm 1 mps 601 mmHg 16%
    13:00 +27°C° 0 mm 2 mps 601 mmHg 14%
    14:00 +28°C° 0 mm 2 mps 601 mmHg 12%
    15:00 +28°C° 0 mm 2 mps 601 mmHg 11%
    16:00 +29°C° 0 mm 3 mps 601 mmHg 11%
    17:00 +29°C° 0 mm 3 mps 601 mmHg 11%
    18:00 +27°C° 0 mm 4 mps 600 mmHg 13%
    19:00 +26°C° 0 mm 5 mps 600 mmHg 16%
    20:00 +24°C° 0 mm 6 mps 600 mmHg 18%
    21:00 +23°C° 0 mm 4 mps 600 mmHg 20%
    22:00 +22°C° 0 mm 3 mps 600 mmHg 23%
    23:00 +21°C° 0 mm 2 mps 600 mmHg 25%

    2 June, Tuesday

    Time Temperature Precipitation Wind Pressure Humidity
    00:00 +21°C° 0 mm 1 mps 599 mmHg 26%
    01:00 +21°C° 0 mm 1 mps 599 mmHg 27%
    02:00 +20°C° 0 mm 1 mps 598 mmHg 29%
    03:00 +19°C° 0 mm 1 mps 598 mmHg 29%
    04:00 +19°C° 0 mm 1 mps 598 mmHg 30%
    05:00 +18°C° 0 mm 1 mps 597 mmHg 31%
    06:00 +19°C° 0 mm 1 mps 598 mmHg 27%
    07:00 +20°C° 0 mm 1 mps 599 mmHg 24%
    08:00 +22°C° 0 mm 1 mps 600 mmHg 21%
    09:00 +23°C° 0 mm 1 mps 600 mmHg 19%
    10:00 +24°C° 0 mm 1 mps 600 mmHg 17%
    11:00 +25°C° 0 mm 1 mps 601 mmHg 15%
    12:00 +26°C° 0 mm 1 mps 601 mmHg 13%
    13:00 +27°C° 0 mm 1 mps 601 mmHg 12%
    14:00 +28°C° 0 mm 2 mps 601 mmHg 11%
    15:00 +28°C° 0 mm 2 mps 600 mmHg 10%
    16:00 +28°C° 0 mm 2 mps 600 mmHg 10%
    17:00 +29°C° 0 mm 3 mps 600 mmHg 10%
    18:00 +28°C° 0 mm 3 mps 600 mmHg 12%
    19:00 +27°C° 0 mm 4 mps 599 mmHg 15%
    20:00 +26°C° 0 mm 4 mps 599 mmHg 17%
    21:00 +25°C° 0 mm 3 mps 599 mmHg 20%
    22:00 +24°C° 0 mm 3 mps 599 mmHg 22%
    23:00 +23°C° 0 mm 2 mps 599 mmHg 24%

    3 June, Wednesday

    Time Temperature Precipitation Wind Pressure Humidity
    00:00 +21°C° 0 mm 2 mps 599 mmHg 25%
    01:00 +21°C° 0 mm 1 mps 598 mmHg 27%
    02:00 +20°C° 0 mm 1 mps 598 mmHg 28%
    03:00 +20°C° 0 mm 1 mps 597 mmHg 29%
    04:00 +19°C° 0 mm 1 mps 597 mmHg 30%
    05:00 +18°C° 0 mm 1 mps 597 mmHg 31%
    06:00 +20°C° 0 mm 1 mps 598 mmHg 28%
    07:00 +21°C° 0 mm 1 mps 598 mmHg 24%
    08:00 +22°C° 0 mm 1 mps 599 mmHg 21%
    09:00 +23°C° 0 mm 1 mps 599 mmHg 19%
    10:00 +24°C° 0 mm 2 mps 600 mmHg 17%
    11:00 +25°C° 0 mm 2 mps 600 mmHg 15%
    12:00 +26°C° 0 mm 2 mps 600 mmHg 13%
    13:00 +27°C° 0 mm 2 mps 600 mmHg 12%
    14:00 +28°C° 0 mm 2 mps 600 mmHg 10%
    15:00 +28°C° 0 mm 2 mps 600 mmHg 10%
    16:00 +28°C° 0 mm 3 mps 600 mmHg 11%
    17:00 +29°C° 0 mm 3 mps 600 mmHg 11%
    18:00 +28°C° 0 mm 3 mps 600 mmHg 14%
    19:00 +27°C° 0 mm 4 mps 599 mmHg 18%
    20:00 +25°C° 0 mm 5 mps 599 mmHg 21%
    21:00 +25°C° 0 mm 4 mps 599 mmHg 23%
    22:00 +24°C° 0 mm 3 mps 599 mmHg 25%
    23:00 +23°C° 0 mm 2 mps 600 mmHg 26%
    Show more